DW3400 Weather Reports


time (UTC)temp
C
wind
direction
speed
KPH
gust
KPH
rain 1hr
cm
rain 24hr
cm
rain mn
cm
humidity
%
barometer
mb
20260506124502 12 49 9.7 22.5 0.00 0.00 0.00 68 1012.6
20260506124003 12 56 11.3 22.5 0.00 0.00 0.00 69 1012.7
20260506123002 12 55 11.3 32.2 0.00 0.00 0.00 69 1012.6
20260506122503 12 67 12.9 22.5 0.00 0.00 0.00 71 1012.5
20260506122002 12 43 14.5 22.5 0.00 0.00 0.00 69 1012.3
20260506121503 12 51 9.7 27.4 0.00 0.00 0.00 69 1012.4
20260506120502 12 42 8.0 19.3 0.00 0.00 0.00 70 1012.4
20260506114003 12 52 9.7 19.3 0.00 0.00 0.00 73 1012.4
20260506111003 12 57 4.8 20.9 0.00 0.00 0.00 75 1012.4
20260506110503 12 4 8.0 20.9 0.00 0.00 0.00 72 1012.4
20260506103502 12 53 14.5 20.9 0.00 0.00 0.00 71 1012.4
20260506103003 12 72 6.4 16.1 0.00 0.00 0.00 73 1012.3
20260506101503 12 32 4.8 14.5 0.00 0.00 0.00 68 1012.4
20260506100502 12 14 3.2 14.5 0.00 0.00 0.00 67 1012.3
20260506100003 12 10 4.8 11.3 0.00 0.00 0.00 66 1012.3
20260506092003 12 2 3.2 9.7 0.00 0.00 0.00 66 1012.1
20260506091503 12 23 4.8 11.3 0.00 0.00 0.00 65 1012.0
20260506091003 12 15 9.7 16.1 0.00 0.00 0.00 63 1012.0
20260506090503 12 29 4.8 12.9 0.00 0.00 0.00 64 1012.0
20260506085502 12 7 1.6 9.7 0.00 0.00 0.00 66 1012.0
20260506085003 12 340 4.8 12.9 0.00 0.00 0.00 65 1011.9
20260506084503 12 355 4.8 12.9 0.00 0.00 0.00 66 1012.0
20260506084002 12 1 4.8 12.9 0.00 0.00 0.00 63 1012.0
20260506083503 12 323 4.8 12.9 0.00 0.00 0.00 65 1011.9
20260506073503 11 335 3.2 9.7 0.00 0.00 0.00 66 1012.1
20260506073003 11 336 3.2 8.0 0.00 0.00 0.00 68 1012.2
20260506072503 10 342 3.2 4.8 0.00 0.00 0.00 68 1012.2
20260506071503 10 349 4.8 9.7 0.00 0.00 0.00 67 1012.2
20260506070502 10 28 3.2 4.8 0.00 0.00 0.00 69 1012.3
20260506062502 8 42 1.6 4.8 0.00 0.00 0.00 76 1012.2
20260506061502 8 329 1.6 4.8 0.00 0.00 0.00 77 1012.1
20260506061003 8 330 1.6 9.7 0.00 0.00 0.00 77 1012.0
20260506060504 8 340 1.6 9.7 0.00 0.00 0.00 78 1012.0
20260506045003 6 296 0.0 3.2 0.00 0.00 0.00 86 1012.3
20260506044503 5 298 1.6 4.8 0.00 0.00 0.00 86 1012.3
20260506043502 5 296 1.6 4.8 0.00 0.00 0.00 86 1012.4
20260506042503 5 296 0.0 0.0 0.00 0.00 0.00 88 1012.5
20260506042003 5 294 0.0 0.0 0.00 0.00 0.00 88 1012.5
20260506041503 4 305 0.0 0.0 0.00 0.00 0.00 88 1012.4
20260506041002 4 305 0.0 0.0 0.00 0.00 0.00 87 1012.6
20260506040502 4 305 0.0 0.0 0.00 0.00 0.00 87 1012.5
20260506040003 4 305 0.0 0.0 0.00 0.00 0.00 87 1012.4
20260506035503 4 305 0.0 0.0 0.00 0.00 0.00 87 1012.4
20260506034503 4 305 0.0 0.0 0.00 0.00 0.00 87 1012.4
20260506033502 4 304 0.0 0.0 0.00 0.00 0.00 87 1012.5
20260506033004 4 304 0.0 0.0 0.00 0.00 0.00 87 1012.5
20260506032503 5 304 0.0 0.0 0.00 0.00 0.00 87 1012.5
20260506032003 5 289 0.0 0.0 0.00 0.00 0.00 87 1012.5
20260506031003 5 284 0.0 0.0 0.00 0.00 0.00 87 1012.5
20260506025503 5 293 1.6 3.2 0.00 0.00 0.00 87 1012.7
20260506025003 4 294 1.6 3.2 0.00 0.00 0.00 87 1012.7
20260506023503 3 8 0.0 0.0 0.00 0.00 0.00 86 1012.8
20260506021003 3 8 0.0 0.0 0.00 0.00 0.00 86 1013.0
20260506020004 3 8 0.0 0.0 0.00 0.00 0.00 85 1013.0
20260506015004 3 8 0.0 0.0 0.00 0.00 0.00 84 1013.0
20260506013503 3 8 0.0 0.0 0.00 0.00 0.00 82 1012.9
20260506013003 3 8 0.0 0.0 0.00 0.00 0.00 82 1012.9
20260506010503 4 333 0.0 0.0 0.00 0.00 0.00 79 1012.9
20260506005503 4 333 0.0 0.0 0.00 0.00 0.00 79 1012.9
20260506004504 4 289 1.6 3.2 0.00 0.00 0.00 78 1012.9
20260506003503 4 293 1.6 3.2 0.00 0.00 0.00 78 1012.9
20260506001003 4 295 0.0 0.0 0.00 0.00 0.00 79 1013.3
20260506000003 5 295 0.0 0.0 0.00 0.00 0.00 80 1013.4
20260505235503 5 295 0.0 3.2 0.00 0.00 0.00 81 1013.3
20260505235003 4 294 1.6 3.2 0.00 0.00 0.00 83 1013.2
20260505234503 4 280 0.0 0.0 0.00 0.00 0.00 84 1013.3
20260505234003 4 280 0.0 0.0 0.00 0.00 0.00 84 1013.4
20260505233503 4 280 0.0 0.0 0.00 0.00 0.00 84 1013.4
20260505232503 4 280 0.0 0.0 0.00 0.00 0.00 84 1013.5
20260505232003 4 280 0.0 0.0 0.00 0.00 0.00 84 1013.5
20260505231502 4 280 0.0 0.0 0.00 0.00 0.00 84 1013.5
20260505230503 5 280 0.0 0.0 0.00 0.00 0.00 83 1013.4
20260505224003 5 280 0.0 1.6 0.00 0.00 0.00 84 1013.4
20260505221003 6 281 0.0 1.6 0.00 0.00 0.00 88 1013.5
20260505220003 6 281 0.0 1.6 0.00 0.00 0.00 88 1013.7
20260505215503 6 295 0.0 1.6 0.00 0.00 0.00 88 1013.7
20260505215004 6 50 0.0 1.6 0.00 0.00 0.00 88 1013.8
20260505214503 6 50 0.0 0.0 0.00 0.00 0.00 88 1013.8
20260505213503 6 50 0.0 0.0 0.00 0.00 0.00 88 1013.9
20260505213003 6 50 0.0 0.0 0.00 0.00 0.00 87 1014.0
20260505212503 6 50 0.0 0.0 0.00 0.00 0.00 86 1014.0
20260505212003 6 50 0.0 0.0 0.00 0.00 0.00 86 1014.0
20260505211503 6 50 0.0 0.0 0.00 0.00 0.00 86 1014.0
20260505210503 6 50 0.0 0.0 0.00 0.00 0.00 85 1013.9
20260505203502 8 50 0.0 1.6 0.00 0.00 0.00 83 1013.9
20260505202503 8 56 0.0 1.6 0.00 0.00 0.00 84 1013.9
20260505202003 8 56 0.0 1.6 0.00 0.00 0.00 84 1013.9
20260505201003 8 56 0.0 1.6 0.00 0.00 0.00 83 1013.9
20260505200003 8 56 0.0 0.0 0.00 0.00 0.00 81 1013.9
20260505195503 9 56 0.0 1.6 0.00 0.00 0.00 81 1013.9
20260505192003 10 91 1.6 4.8 0.00 0.00 0.00 80 1013.7
20260505190503 10 200 0.0 0.0 0.00 0.00 0.00 79 1013.5
20260505190004 10 200 0.0 0.0 0.00 0.00 0.00 78 1013.5
20260505184003 11 200 0.0 0.0 0.00 0.00 0.00 77 1013.4
20260505182003 11 200 0.0 0.0 0.00 0.00 0.00 75 1013.4
20260505181003 11 200 0.0 0.0 0.00 0.00 0.00 74 1013.5
20260505175003 12 242 0.0 3.2 0.00 0.00 0.00 74 1013.4
20260505174504 12 174 0.0 1.6 0.00 0.00 0.00 74 1013.4
20260505174003 12 170 1.6 3.2 0.00 0.00 0.00 73 1013.5
20260505173502 12 205 1.6 3.2 0.00 0.00 0.00 72 1013.5
20260505172503 12 195 3.2 4.8 0.00 0.00 0.00 71 1013.4
20260505171503 13 191 1.6 4.8 0.00 0.00 0.00 70 1013.4
20260505170003 13 190 1.6 4.8 0.00 0.00 0.00 70 1013.5
20260505165003 14 199 3.2 4.8 0.00 0.00 0.00 67 1013.5
20260505164503 13 214 0.0 3.2 0.00 0.00 0.00 68 1013.5
20260505164003 13 203 1.6 3.2 0.00 0.00 0.00 68 1013.5
20260505163003 13 144 1.6 3.2 0.00 0.00 0.00 68 1013.6
20260505162003 13 150 1.6 8.0 0.00 0.00 0.00 70 1013.4
20260505160503 12 184 3.2 8.0 0.00 0.00 0.00 72 1013.5
20260505153003 12 127 3.2 4.8 0.00 0.00 0.00 71 1013.6
20260505152003 12 66 4.8 11.3 0.00 0.00 0.00 70 1013.6
20260505151503 13 98 3.2 11.3 0.00 0.00 0.00 69 1013.6
20260505140503 13 184 6.4 16.1 0.00 0.00 0.00 71 1013.8